Location: Seattle
(47.6064°N, 122.3308°W)
Time: 16:36:47
(UTC-07:00)

Vanguard 1 Rocket - Visible Passes

Search period start: 07 May 2021 00:00
Search period end: 17 May 2021 00:00
Orbit: 652 x 4224 km, 34.3° (Epoch: 07 May)

Date Brightness Start Highest point End Pass type
(mag) Time Alt. Az. Time Alt. Az. Time Alt. Az.
11 May 11.9 04:20:05 10° SE 04:23:42 10° SE 04:27:10 10° ESE visible
13 May 11.8 04:13:30 10° SSE 04:25:35 16° SE 04:36:20 10° ESE visible
15 May 11.6 04:11:19 10° S 04:27:23 21° SE 04:41:25 10° E visible
16 May 11.7 03:06:09 10° SSE 03:14:38 13° SE 03:22:47 10° ESE visible
